Miscellaneous Local Product
Issued by NWS Hastings, NE

Home | Current Version | Previous Version | Graphics & Text | Print | Product List | Glossary On
Versions: 1 2 3 4 5 6 7 8 9 10 11 12 13 14 15 16 17 18 19 20 21 22 23 24 25 26 27 28 29 30 31 32 33 34 35 36 37 38 39 40 41 42 43 44 45 46 47 48 49 50
434
AXUS43 KGID 211502
MISGRI

GID CWA HOURLY WEATHER ROUNDUP
NATIONAL WEATHER SERVICE HASTINGS NE
900 AM CST SAT JAN 21 2017

NOTE: "FAIR" INDICATES FEW OR NO CLOUDS BELOW 12,000 FEET WITH NO
SIGNIFICANT WEATHER AND/OR OBSTRUCTIONS TO VISIBILITY.

...SOUTH CENTRAL NEBRASKA...

CITY           SKY/WX    TMP DP  RH WIND       PRES   REMARKS
GRAND ISLAND   CLOUDY    34  34 100 W10       29.44R WCI  26
HASTINGS       SUNNY     34  32  92 W6        29.44S WCI  29
KEARNEY        CLEAR     34 -17  11 W6        29.43S WCI  29
ORD            CLEAR     35  31  85 SW12      29.41R WCI  27
YORK           SUNNY     34  34 100 W10       29.45R WCI  26
AURORA         PTSUNNY   33  33 100 W9        29.44R WCI  26
LEXINGTON      CLEAR     30  29  96 CALM      29.43R FOG
HOLDREGE       CLEAR     32  31  96 W7        29.43S WCI  26
HEBRON         SUNNY     33  33 100 CALM      29.45S

...NEBRASKA PANHANDLE...

CITY           SKY/WX    TMP DP  RH WIND       PRES   REMARKS
CHADRON        FOG       26  25  96 W9        29.40R VSB 1/4 WCI  17
ALLIANCE       CLEAR     16  13  88 W6        29.39R WCI   7
SCOTTSBLUFF    CLEAR     21  16  81 NW5       29.41R WCI  15
SIDNEY         CLEAR     22  19  89 W8        29.40R WCI  12

...WESTERN AND NORTH CENTRAL NEBRASKA...

CITY           SKY/WX    TMP DP  RH WIND       PRES   REMARKS
VALENTINE      CLEAR     30  27  88 SW9       29.38R WCI  22
AINSWORTH      CLOUDY    32  32 100 W7        29.38R WCI  25
ONEILL         PTCLDY    33  32  95 W6        29.38R WCI  28
BROKEN BOW     CLEAR     34  32  92 CALM      29.40S
IMPERIAL       CLEAR     29  23  78 W5        29.43R WCI  24
NORTH PLATTE   CLEAR     27  25  92 NW3       29.42S
MCCOOK         CLEAR     29  27  92 W8        29.45R WCI  21

...EASTERN NEBRASKA...

CITY           SKY/WX    TMP DP  RH WIND       PRES   REMARKS
NORFOLK        PTCLDY    34  31  88 SW6       29.39R WCI  29
SO SIOUX CITY  FOG       37  37 100 CALM      29.38R VSB 1/4
TEKAMAH        FOG       35  34  96 SW7       29.41R VSB 1/2 WCI  29
COLUMBUS       PTSUNNY   36  32  87 W6        29.43R WCI  31
ALBION         MOCLDY   N/A N/A N/A SW3       29.41
OMAHA EPPLEY   CLOUDY    40  36  86 SW7       29.43R FOG
OFFUTT AFB     FOG       37  37 100 SW12      29.43R VSB 3/4 WCI  30
MILLARD        CLOUDY    38  38  97 CALM      29.44R FOG
LINCOLN        SUNNY     35  34  96 CALM      29.46R
NEBRASKA CITY  FOG       36  36 100 W13       29.44R VSB 1/4 WCI  27
BEATRICE       SUNNY     35  35 100 NW3       29.45S
FALLS CITY     CLOUDY    40  39  97 W10       29.45R FOG     WCI  33

...NORTHERN KANSAS...

CITY           SKY/WX    TMP DP  RH WIND       PRES   REMARKS
GOODLAND       CLEAR     27  25  92 CALM      29.42R
HILL CITY      CLOUDY    31  30  96 W5        29.46S WCI  26
NORTON         SUNNY     30  27  86 W5        29.44S WCI  25
PHILLIPSBURG   SUNNY     32  32 100 W5        29.46S WCI  27
SMITH CENTER   SUNNY     30  30 100 CALM      29.47S FOG
HAYS           SUNNY     35  33  92 S5        29.47S WCI  31
RUSSELL        SUNNY     32  31  96 W5        29.45S WCI  27
CONCORDIA      SUNNY     35  34  96 W9        29.45F WCI  28
SALINA         SUNNY     34  32  92 S5        29.49R WCI  30
TOPEKA         FOG       35  33  92 S3        29.50R VSB 1/2



USA.gov is the U.S. government's official web portal to all federal, state and local government web resources and services.